Location: Siratepeler Tepesi
(39.1042°N, 32.0781°E)
Time: 01:19:08
(UTC+00:00)

Cosmos 923 Rocket - Pass Details

Date: 11 April 2026
Orbit: 754 x 780 km, 74.0° (Epoch: 11 May)

Event Time Altitude Azimuth Distance (km) Brightness Sun altitude
Rises 17:48:46 0° 346° (NNW) 3,269 7.9 -16.2°
Reaches altitude 10° 17:51:14 10° 351° (N) 2,335 7.0 -16.6°
Maximum altitude 17:56:25 53° 68° (ENE) 946 4.2 -17.5°
Enters shadow 17:58:39 32° 128° (SE) 1,316 4.7 -17.9°
